Time,TemperatureF,DewpointF,PressureIn,WindDirection,WindDirectionDegrees,WindSpeedMPH,WindSpeedGustMPH,Humidity,HourlyPrecipIn,Conditions,Clouds,dailyrainin,SolarRadiationWatts/m^2,SoftwareType,DateUTC
2013-02-16 00:21:00,56.0,47.0,-100.00,SE,146,9.0,18.0,71,0.00,,,0.00,0.000000,,2013-02-16 10:21:00,
2013-02-16 00:31:00,56.0,47.0,-100.00,SE,146,9.0,18.0,71,0.00,,,0.00,0.000000,,2013-02-16 10:31:00,
2013-02-16 00:41:00,56.0,47.0,-100.00,SE,146,9.0,18.0,71,0.00,,,0.00,0.000000,,2013-02-16 10:41:00,
2013-02-16 00:51:00,56.0,47.0,-100.00,SE,146,9.0,18.0,71,0.00,,,0.00,0.000000,,2013-02-16 10:51:00,
2013-02-16 01:22:00,51.0,47.0,-100.00,South,176,3.0,14.0,86,0.00,,,0.00,0.000000,,2013-02-16 11:22:00,
2013-02-16 01:31:00,51.0,47.0,-100.00,South,176,3.0,14.0,86,0.00,,,0.00,0.000000,,2013-02-16 11:31:00,
2013-02-16 01:42:00,51.0,47.0,-100.00,South,176,3.0,14.0,86,0.00,,,0.00,0.000000,,2013-02-16 11:42:00,
2013-02-16 01:52:00,51.0,47.0,-100.00,South,176,3.0,14.0,86,0.00,,,0.00,0.000000,,2013-02-16 11:52:00,
2013-02-16 02:22:00,51.0,45.0,-100.00,ESE,106,7.0,17.0,81,0.00,,,0.00,0.000000,,2013-02-16 12:22:00,
2013-02-16 02:32:00,51.0,45.0,-100.00,ESE,106,7.0,17.0,81,0.00,,,0.00,0.000000,,2013-02-16 12:32:00,
2013-02-16 02:42:00,51.0,45.0,-100.00,ESE,106,7.0,17.0,81,0.00,,,0.00,0.000000,,2013-02-16 12:42:00,
2013-02-16 02:52:00,51.0,45.0,-100.00,ESE,106,7.0,17.0,81,0.00,,,0.00,0.000000,,2013-02-16 12:52:00,
2013-02-16 03:21:00,57.0,49.0,-100.00,ESE,122,16.0,26.0,75,0.00,,,-99.99,0.000000,,2013-02-16 13:21:00,
2013-02-16 03:31:00,57.0,49.0,-100.00,ESE,122,16.0,26.0,75,0.00,,,-99.99,0.000000,,2013-02-16 13:31:00,
2013-02-16 03:41:00,57.0,49.0,-100.00,ESE,122,16.0,26.0,75,0.00,,,-99.99,0.000000,,2013-02-16 13:41:00,
2013-02-16 03:51:00,57.0,49.0,-100.00,ESE,122,16.0,26.0,75,0.00,,,-99.99,0.000000,,2013-02-16 13:51:00,
2013-02-16 04:21:00,57.0,48.0,-100.00,ENE,77,6.0,31.0,71,0.00,,,0.00,0.000000,,2013-02-16 14:21:00,
2013-02-16 04:32:00,57.0,48.0,-100.00,ENE,77,6.0,31.0,71,0.00,,,0.00,0.000000,,2013-02-16 14:32:00,
2013-02-16 04:41:00,57.0,48.0,-100.00,ENE,77,6.0,31.0,71,0.00,,,0.00,0.000000,,2013-02-16 14:41:00,
2013-02-16 04:52:00,57.0,48.0,-100.00,ENE,77,6.0,31.0,71,0.00,,,0.00,0.000000,,2013-02-16 14:52:00,
2013-02-16 05:21:00,50.0,44.0,-100.00,NNE,28,6.0,13.0,81,0.00,,,-99.99,0.000000,,2013-02-16 15:21:00,
2013-02-16 05:31:00,50.0,44.0,-100.00,NNE,28,6.0,13.0,81,0.00,,,-99.99,0.000000,,2013-02-16 15:31:00,
2013-02-16 05:41:00,50.0,44.0,-100.00,NNE,28,6.0,13.0,81,0.00,,,-99.99,0.000000,,2013-02-16 15:41:00,
2013-02-16 05:51:00,50.0,44.0,-100.00,NNE,28,6.0,13.0,81,0.00,,,-99.99,0.000000,,2013-02-16 15:51:00,
2013-02-16 06:21:00,51.0,48.0,-100.00,ENE,72,3.0,11.0,89,0.00,,,-99.99,0.000000,,2013-02-16 16:21:00,
2013-02-16 06:32:00,51.0,48.0,-100.00,ENE,72,3.0,11.0,89,0.00,,,-99.99,0.000000,,2013-02-16 16:32:00,
2013-02-16 06:41:00,51.0,48.0,-100.00,ENE,72,3.0,11.0,89,0.00,,,-99.99,0.000000,,2013-02-16 16:41:00,
2013-02-16 06:51:00,51.0,48.0,-100.00,ENE,72,3.0,11.0,89,0.00,,,-99.99,0.000000,,2013-02-16 16:51:00,
2013-02-16 07:21:00,51.0,46.0,-100.00,East,82,8.0,15.0,84,0.00,,,0.00,0.000000,,2013-02-16 17:21:00,
2013-02-16 07:32:00,51.0,46.0,-100.00,East,82,8.0,15.0,84,0.00,,,0.00,0.000000,,2013-02-16 17:32:00,
2013-02-16 07:41:00,51.0,46.0,-100.00,East,82,8.0,15.0,84,0.00,,,0.00,0.000000,,2013-02-16 17:41:00,
2013-02-16 07:52:00,51.0,46.0,-100.00,East,82,8.0,15.0,84,0.00,,,0.00,0.000000,,2013-02-16 17:52:00,
2013-02-16 08:21:00,59.0,48.0,-100.00,NW,324,3.0,29.0,66,0.00,,,0.00,108.000000,,2013-02-16 18:21:00,
2013-02-16 08:33:00,59.0,48.0,-100.00,NW,324,3.0,29.0,66,0.00,,,0.00,108.000000,,2013-02-16 18:33:00,
2013-02-16 08:42:00,59.0,48.0,-100.00,NW,324,3.0,29.0,66,0.00,,,0.00,108.000000,,2013-02-16 18:42:00,
2013-02-16 08:51:00,59.0,48.0,-100.00,NW,324,3.0,29.0,66,0.00,,,0.00,108.000000,,2013-02-16 18:51:00,
2013-02-16 09:21:00,63.0,50.0,-100.00,NE,55,12.0,27.0,62,0.00,,,0.00,392.000000,,2013-02-16 19:21:00,
2013-02-16 09:31:00,63.0,50.0,-100.00,NE,55,12.0,27.0,62,0.00,,,0.00,392.000000,,2013-02-16 19:31:00,
2013-02-16 09:42:00,63.0,50.0,-100.00,NE,55,12.0,27.0,62,0.00,,,0.00,392.000000,,2013-02-16 19:42:00,
2013-02-16 09:52:00,63.0,50.0,-100.00,NE,55,12.0,27.0,62,0.00,,,0.00,392.000000,,2013-02-16 19:52:00,
2013-02-16 10:21:00,63.0,52.0,-100.00,WSW,251,4.0,19.0,67,0.00,,,0.00,637.000000,,2013-02-16 20:21:00,
2013-02-16 10:32:00,63.0,52.0,-100.00,WSW,251,4.0,19.0,67,0.00,,,0.00,637.000000,,2013-02-16 20:32:00,
2013-02-16 10:42:00,63.0,52.0,-100.00,WSW,251,4.0,19.0,67,0.00,,,0.00,637.000000,,2013-02-16 20:42:00,
2013-02-16 10:52:00,63.0,52.0,-100.00,WSW,251,4.0,19.0,67,0.00,,,0.00,637.000000,,2013-02-16 20:52:00,
2013-02-16 11:21:00,65.0,53.0,-100.00,NW,306,7.0,15.0,65,0.00,,,0.00,590.000000,,2013-02-16 21:21:00,
2013-02-16 11:31:00,65.0,53.0,-100.00,NW,306,7.0,15.0,65,0.00,,,0.00,590.000000,,2013-02-16 21:31:00,
2013-02-16 11:41:00,65.0,53.0,-100.00,NW,306,7.0,15.0,65,0.00,,,0.00,590.000000,,2013-02-16 21:41:00,
2013-02-16 11:52:00,65.0,53.0,-100.00,NW,306,7.0,15.0,65,0.00,,,0.00,590.000000,,2013-02-16 21:52:00,
2013-02-16 12:21:00,68.0,46.0,-100.00,NE,37,6.0,33.0,46,0.00,,,0.00,961.000000,,2013-02-16 22:21:00,
2013-02-16 12:32:00,68.0,46.0,-100.00,NE,37,6.0,33.0,46,0.00,,,0.00,961.000000,,2013-02-16 22:32:00,
2013-02-16 12:42:00,68.0,46.0,-100.00,NE,37,6.0,33.0,46,0.00,,,0.00,961.000000,,2013-02-16 22:42:00,
2013-02-16 12:51:00,68.0,46.0,-100.00,NE,37,6.0,33.0,46,0.00,,,0.00,961.000000,,2013-02-16 22:51:00,
2013-02-16 13:21:00,71.0,47.0,-100.00,SE,126,27.0,40.0,43,0.00,,,0.00,970.000000,,2013-02-16 23:21:00,
2013-02-16 13:31:00,71.0,47.0,-100.00,SE,126,27.0,40.0,43,0.00,,,0.00,970.000000,,2013-02-16 23:31:00,
2013-02-16 13:42:00,71.0,47.0,-100.00,SE,126,27.0,40.0,43,0.00,,,0.00,970.000000,,2013-02-16 23:42:00,
2013-02-16 13:52:00,71.0,47.0,-100.00,SE,126,27.0,40.0,43,0.00,,,0.00,970.000000,,2013-02-16 23:52:00,
2013-02-16 14:21:00,73.0,46.0,-100.00,ESE,120,19.0,43.0,38,0.00,,,0.00,1048.000000,,2013-02-17 00:21:00,
2013-02-16 14:31:00,73.0,46.0,-100.00,ESE,120,19.0,43.0,38,0.00,,,0.00,1048.000000,,2013-02-17 00:31:00,
2013-02-16 14:41:00,73.0,46.0,-100.00,ESE,120,19.0,43.0,38,0.00,,,0.00,1048.000000,,2013-02-17 00:41:00,
2013-02-16 14:51:00,73.0,46.0,-100.00,ESE,120,19.0,43.0,38,0.00,,,0.00,1048.000000,,2013-02-17 00:51:00,
2013-02-16 15:21:00,72.0,44.0,-100.00,ESE,119,19.0,36.0,36,0.00,,,0.00,945.000000,,2013-02-17 01:21:00,
2013-02-16 15:31:00,72.0,44.0,-100.00,ESE,119,19.0,36.0,36,0.00,,,0.00,945.000000,,2013-02-17 01:31:00,
2013-02-16 15:41:00,72.0,44.0,-100.00,ESE,119,19.0,36.0,36,0.00,,,0.00,945.000000,,2013-02-17 01:41:00,
2013-02-16 15:52:00,72.0,44.0,-100.00,ESE,119,19.0,36.0,36,0.00,,,0.00,945.000000,,2013-02-17 01:52:00,
2013-02-16 16:21:00,71.0,40.0,-100.00,NW,322,6.0,32.0,33,0.00,,,0.00,748.000000,,2013-02-17 02:21:00,
2013-02-16 16:31:00,71.0,40.0,-100.00,NW,322,6.0,32.0,33,0.00,,,0.00,748.000000,,2013-02-17 02:31:00,
2013-02-16 16:41:00,71.0,40.0,-100.00,NW,322,6.0,32.0,33,0.00,,,0.00,748.000000,,2013-02-17 02:41:00,
2013-02-16 16:52:00,71.0,40.0,-100.00,NW,322,6.0,32.0,33,0.00,,,0.00,748.000000,,2013-02-17 02:52:00,
2013-02-16 17:11:00,63.0,42.0,-100.00,ESE,107,19.0,29.0,47,0.00,,,0.00,198.000000,,2013-02-17 03:11:00,
2013-02-16 17:21:00,63.0,42.0,-100.00,ESE,107,19.0,29.0,47,0.00,,,0.00,198.000000,,2013-02-17 03:21:00,
2013-02-16 17:31:00,63.0,42.0,-100.00,ESE,107,19.0,29.0,47,0.00,,,0.00,198.000000,,2013-02-17 03:31:00,
2013-02-16 17:42:00,63.0,42.0,-100.00,ESE,107,19.0,29.0,47,0.00,,,0.00,198.000000,,2013-02-17 03:42:00,
2013-02-16 17:51:00,63.0,42.0,-100.00,ESE,107,19.0,29.0,47,0.00,,,0.00,198.000000,,2013-02-17 03:51:00,
2013-02-16 18:21:00,64.0,45.0,-100.00,NE,50,8.0,35.0,50,0.00,,,0.00,153.000000,,2013-02-17 04:21:00,
2013-02-16 18:31:00,64.0,45.0,-100.00,NE,50,8.0,35.0,50,0.00,,,0.00,153.000000,,2013-02-17 04:31:00,
2013-02-16 18:41:00,64.0,45.0,-100.00,NE,50,8.0,35.0,50,0.00,,,0.00,153.000000,,2013-02-17 04:41:00,
2013-02-16 18:51:00,64.0,45.0,-100.00,NE,50,8.0,35.0,50,0.00,,,0.00,153.000000,,2013-02-17 04:51:00,
2013-02-16 19:22:00,59.0,46.0,-100.00,ESE,108,21.0,35.0,61,0.00,,,0.00,5.000000,,2013-02-17 05:22:00,
2013-02-16 19:32:00,59.0,46.0,-100.00,ESE,108,21.0,35.0,61,0.00,,,0.00,5.000000,,2013-02-17 05:32:00,
2013-02-16 19:42:00,59.0,46.0,-100.00,ESE,108,21.0,35.0,61,0.00,,,0.00,5.000000,,2013-02-17 05:42:00,
2013-02-16 19:52:00,59.0,46.0,-100.00,ESE,108,21.0,35.0,61,0.00,,,0.00,5.000000,,2013-02-17 05:52:00,
2013-02-16 20:21:00,58.0,45.0,-100.00,East,100,17.0,32.0,63,0.00,,,0.00,0.000000,,2013-02-17 06:21:00,
2013-02-16 20:31:00,58.0,45.0,-100.00,East,100,17.0,32.0,63,0.00,,,0.00,0.000000,,2013-02-17 06:31:00,
2013-02-16 20:41:00,58.0,45.0,-100.00,East,100,17.0,32.0,63,0.00,,,0.00,0.000000,,2013-02-17 06:41:00,
2013-02-16 20:51:00,58.0,45.0,-100.00,East,100,17.0,32.0,63,0.00,,,0.00,0.000000,,2013-02-17 06:51:00,
2013-02-16 21:21:00,58.0,46.0,-100.00,ESE,112,15.0,40.0,65,0.00,,,0.00,0.000000,,2013-02-17 07:21:00,
2013-02-16 21:31:00,58.0,46.0,-100.00,ESE,112,15.0,40.0,65,0.00,,,0.00,0.000000,,2013-02-17 07:31:00,
2013-02-16 21:41:00,58.0,46.0,-100.00,ESE,112,15.0,40.0,65,0.00,,,0.00,0.000000,,2013-02-17 07:41:00,
2013-02-16 21:51:00,58.0,46.0,-100.00,ESE,112,15.0,40.0,65,0.00,,,0.00,0.000000,,2013-02-17 07:51:00,
2013-02-16 22:21:00,57.0,46.0,-100.00,ESE,108,25.0,47.0,66,0.00,,,0.00,0.000000,,2013-02-17 08:21:00,
2013-02-16 22:31:00,57.0,46.0,-100.00,ESE,108,25.0,47.0,66,0.00,,,0.00,0.000000,,2013-02-17 08:31:00,
2013-02-16 22:42:00,57.0,46.0,-100.00,ESE,108,25.0,47.0,66,0.00,,,0.00,0.000000,,2013-02-17 08:42:00,
2013-02-16 22:52:00,57.0,46.0,-100.00,ESE,108,25.0,47.0,66,0.00,,,0.00,0.000000,,2013-02-17 08:52:00,
2013-02-16 23:21:00,57.0,44.0,-100.00,ESE,111,24.0,45.0,61,0.00,,,0.00,0.000000,,2013-02-17 09:21:00,
2013-02-16 23:31:00,57.0,44.0,-100.00,ESE,111,24.0,45.0,61,0.00,,,0.00,0.000000,,2013-02-17 09:31:00,
2013-02-16 23:41:00,57.0,44.0,-100.00,ESE,111,24.0,45.0,61,0.00,,,0.00,0.000000,,2013-02-17 09:41:00,
2013-02-16 23:51:00,57.0,44.0,-100.00,ESE,111,24.0,45.0,61,0.00,,,0.00,0.000000,,2013-02-17 09:51:00,